Date String (YYYY-MM-DD hh:mm:ss) UTC,Instrument flags,absolute air pressure of the measurement (hPa),sample flow rate (lpm),inlet stack bypass flow (lpm),air temperature of the measurement (°C),ambient temperature measured by the external sensor (°C),aerosol sample conditioner tube jacket temperature (°C),OPC LED temperature (°C),internal box temperature (°C),relative humidity of the measurement (%),span deviation,mass concentration of particles derived from Lorenz-Mie calculation of OPC scattering (μg/m³),mass concentration of particles derived from Lorenz-Mie calculation of OPC scattering (μg/m³),mass concentration of particles derived from Lorenz-Mie calculation of OPC scattering (μg/m³)
DateTimeUTC,F1_M11,P_M11,Q1_M11,Q2_M11,T1_M11,T2_M11,T3_M11,T4_M11,T5_M11,U1_M11,ZSPAN_M11,X0_M11,X2_M11,X1_M11
2024-03-14 00:00:00,SystemResetWarning,0821.0,5.01,000.00,021.5,020.7,000.0,030.1,023.3,26.2,0000.0,0006.58,0003.95,0003.57
2024-03-14 00:01:00,SystemResetWarning,0821.2,5.01,000.00,021.5,020.7,000.0,030.1,023.3,26.1,0000.0,0006.48,0003.96,0003.60
2024-03-14 00:02:00,SystemResetWarning,0821.0,5.00,000.00,021.5,020.7,000.0,030.1,023.3,26.0,0000.0,0006.84,0003.98,0003.63
2024-03-14 00:03:00,SystemResetWarning,0820.9,4.99,000.00,021.5,020.7,000.0,030.1,023.3,26.0,0000.0,0007.03,0004.03,0003.67
2024-03-14 00:04:00,SystemResetWarning,0821.0,4.99,000.00,021.5,020.7,000.0,030.1,023.3,26.0,0000.0,0007.05,0004.05,0003.71
2024-03-14 00:05:00,SystemResetWarning,0821.1,4.99,000.00,021.5,020.7,000.0,030.0,023.3,26.0,0000.0,0007.23,0004.12,0003.75
2024-03-14 00:06:00,SystemResetWarning,0821.1,5.01,000.00,021.5,020.6,000.0,030.0,023.3,25.9,0000.0,0007.35,0004.16,0003.78
2024-03-14 00:07:00,SystemResetWarning,0821.0,5.01,000.00,021.5,020.6,000.0,030.0,023.3,25.9,0000.0,0007.51,0004.24,0003.83
2024-03-14 00:08:00,SystemResetWarning,0821.0,5.00,000.00,021.5,020.6,000.0,030.0,023.3,25.8,0000.0,0007.54,0004.27,0003.85
2024-03-14 00:09:00,SystemResetWarning,0821.0,4.99,000.00,021.5,020.6,000.0,030.0,023.3,25.7,0000.0,0007.55,0004.29,0003.88
2024-03-14 00:10:00,SystemResetWarning,0821.0,4.99,000.00,021.5,020.6,000.0,030.0,023.3,25.7,0000.0,0007.57,0004.31,0003.90
2024-03-14 00:11:00,SystemResetWarning,0821.1,5.00,000.00,021.5,020.6,000.0,030.0,023.3,25.7,0000.0,0007.53,0004.32,0003.91
2024-03-14 00:12:00,SystemResetWarning,0821.1,5.01,000.00,021.4,020.6,000.0,030.0,023.3,25.7,0000.0,0007.56,0004.34,0003.92
2024-03-14 00:13:00,SystemResetWarning,0821.1,5.01,000.00,021.4,020.6,000.0,030.0,023.3,25.8,0000.0,0007.41,0004.33,0003.92
2024-03-14 00:14:00,SystemResetWarning,0821.1,5.01,000.00,021.4,020.6,000.0,030.0,023.3,25.8,0000.0,0007.52,0004.33,0003.91
2024-03-14 00:15:00,SystemResetWarning,0821.1,4.99,000.00,021.4,020.6,000.0,030.0,023.3,25.8,0000.0,0007.82,0004.33,0003.91
2024-03-14 00:16:00,SystemResetWarning,0821.3,4.99,000.00,021.4,020.6,000.0,030.0,023.3,25.8,0000.0,0007.85,0004.34,0003.91
2024-03-14 00:17:00,SystemResetWarning,0821.1,5.00,000.00,021.4,020.6,000.0,030.0,023.2,25.8,0000.0,0007.87,0004.33,0003.89
2024-03-14 00:18:00,SystemResetWarning,0821.2,5.00,000.00,021.4,020.6,000.0,030.0,023.2,25.7,0000.0,0007.84,0004.31,0003.88
2024-03-14 00:19:00,SystemResetWarning,0821.4,5.00,000.00,021.4,020.6,000.0,030.0,023.2,25.6,0000.0,0007.82,0004.29,0003.86
2024-03-14 00:20:00,SystemResetWarning,0821.1,5.01,000.00,021.4,020.6,000.0,030.0,023.2,25.5,0000.0,0007.87,0004.28,0003.84
2024-03-14 00:21:00,SystemResetWarning,0821.2,5.00,000.00,021.4,020.6,000.0,030.0,023.2,25.5,0000.0,0007.85,0004.27,0003.81
2024-03-14 00:22:00,SystemResetWarning,0821.1,5.01,000.00,021.4,020.6,000.0,030.0,023.2,25.5,0000.0,0007.89,0004.26,0003.80
2024-03-14 00:23:00,SystemResetWarning,0821.1,5.00,000.00,021.4,020.6,000.0,030.0,023.2,25.5,0000.0,0008.44,0004.26,0003.79
2024-03-14 00:24:00,SystemResetWarning,0821.2,5.00,000.00,021.4,020.6,000.0,030.0,023.2,25.6,0000.0,0008.44,0004.24,0003.77
2024-03-14 00:25:00,SystemResetWarning,0821.2,5.00,000.00,021.4,020.6,000.0,030.0,023.2,25.6,0000.0,0008.47,0004.22,0003.75
2024-03-14 00:26:00,SystemResetWarning,0821.2,5.00,000.00,021.4,020.6,000.0,030.0,023.2,25.6,0000.0,0008.43,0004.19,0003.72
2024-03-14 00:27:00,SystemResetWarning,0821.2,5.00,000.00,021.4,020.6,000.0,030.0,023.2,25.5,0000.0,0008.40,0004.18,0003.70
2024-03-14 00:28:00,SystemResetWarning,0821.3,5.00,000.00,021.4,020.5,000.0,030.0,023.2,25.5,0000.0,0008.34,0004.15,0003.68
2024-03-14 00:29:00,SystemResetWarning,0821.3,4.99,000.00,021.4,020.5,000.0,030.0,023.2,25.5,0000.0,0008.30,0004.11,0003.66
2024-03-14 00:30:00,SystemResetWarning,0821.3,5.00,000.00,021.4,020.5,000.0,030.0,023.2,25.5,0000.0,0008.28,0004.09,0003.64
2024-03-14 00:31:00,SystemResetWarning,0821.3,5.00,000.00,021.3,020.5,000.0,029.9,023.2,25.5,0000.0,0008.22,0004.08,0003.62
2024-03-14 00:32:00,SystemResetWarning,0821.4,5.00,000.00,021.3,020.5,000.0,029.9,023.2,25.5,0000.0,0008.15,0004.04,0003.61
2024-03-14 00:33:00,SystemResetWarning,0821.3,5.00,000.00,021.3,020.5,000.0,029.9,023.2,25.5,0000.0,0008.09,0004.00,0003.58
2024-03-14 00:34:00,SystemResetWarning,0821.3,5.00,000.00,021.3,020.5,000.0,029.9,023.1,25.5,0000.0,0008.07,0003.96,0003.54
2024-03-14 00:35:00,SystemResetWarning,0821.3,4.99,000.00,021.3,020.5,000.0,029.9,023.1,25.6,0000.0,0008.16,0003.93,0003.52
2024-03-14 00:36:00,SystemResetWarning,0821.3,5.01,000.00,021.3,020.5,000.0,029.9,023.1,25.7,0000.0,0008.06,0003.91,0003.48
2024-03-14 00:37:00,SystemResetWarning,0821.3,5.01,000.00,021.3,020.4,000.0,029.9,023.1,25.8,0000.0,0007.54,0003.89,0003.46
2024-03-14 00:38:00,SystemResetWarning,0821.3,4.99,000.00,021.3,020.4,000.0,029.9,023.1,25.8,0000.0,0007.49,0003.85,0003.44
2024-03-14 00:39:00,SystemResetWarning,0821.3,4.99,000.00,021.3,020.4,000.0,029.9,023.1,25.9,0000.0,0007.47,0003.82,0003.41
2024-03-14 00:40:00,SystemResetWarning,0821.3,5.00,000.00,021.3,020.4,000.0,029.9,023.1,26.0,0000.0,0007.48,0003.80,0003.38
2024-03-14 00:41:00,SystemResetWarning,0821.4,5.01,000.00,021.3,020.4,000.0,029.9,023.1,26.0,0000.0,0007.42,0003.77,0003.35
2024-03-14 00:42:00,SystemResetWarning,0821.3,5.02,000.00,021.3,020.4,000.0,029.9,023.1,25.9,0000.0,0007.47,0003.73,0003.33
2024-03-14 00:43:00,SystemResetWarning,0821.4,4.98,000.00,021.3,020.4,000.0,029.9,023.1,25.8,0000.0,0007.46,0003.71,0003.30
2024-03-14 00:44:00,SystemResetWarning,0821.8,5.00,000.00,021.3,020.4,000.0,029.9,023.1,25.7,0000.0,0007.40,0003.66,0003.26
2024-03-14 00:45:00,SystemResetWarning,0821.8,5.02,000.00,021.3,020.4,000.0,029.9,023.1,25.6,0000.0,0006.62,0003.60,0003.21
2024-03-14 00:46:00,SystemResetWarning,0821.8,4.98,000.00,021.3,020.4,000.0,029.9,023.1,25.4,0000.0,0005.89,0003.55,0003.17
2024-03-14 00:47:00,SystemResetWarning,0821.9,4.99,000.00,021.3,020.4,000.0,029.9,023.1,25.3,0000.0,0005.93,0003.51,0003.14
2024-03-14 00:48:00,SystemResetWarning,0822.0,5.01,000.00,021.3,020.4,000.0,029.9,023.1,25.3,0000.0,0005.94,0003.46,0003.09
2024-03-14 00:49:00,SystemResetWarning,0822.0,5.01,000.00,021.3,020.4,000.0,029.9,023.1,25.3,0000.0,0005.90,0003.40,0003.01
2024-03-14 00:50:00,SystemResetWarning,0822.0,5.00,000.00,021.3,020.4,000.0,029.9,023.1,25.2,0000.0,0005.81,0003.35,0002.92
2024-03-14 00:51:00,SystemResetWarning,0822.0,4.99,000.00,021.3,020.4,000.0,029.8,023.1,25.2,0000.0,0005.51,0003.28,0002.84
2024-03-14 00:52:00,SystemResetWarning,0822.0,4.99,000.00,021.3,020.4,000.0,029.8,023.1,25.2,0000.0,0005.46,0003.22,0002.76
2024-03-14 00:53:00,SystemResetWarning,0822.0,5.00,000.00,021.2,020.4,000.0,029.8,023.1,25.3,0000.0,0005.20,0003.19,0002.68
2024-03-14 00:54:00,SystemResetWarning,0822.0,5.01,000.00,021.2,020.4,000.0,029.8,023.1,25.3,0000.0,0005.14,0003.14,0002.58
2024-03-14 00:55:00,SystemResetWarning,0822.0,5.00,000.00,021.2,020.4,000.0,029.8,023.1,25.2,0000.0,0005.10,0003.09,0002.53
2024-03-14 00:56:00,SystemResetWarning,0822.0,5.00,000.00,021.2,020.4,000.0,029.8,023.1,25.2,0000.0,0005.08,0003.06,0002.47
2024-03-14 00:57:00,SystemResetWarning,0822.0,4.99,000.00,021.2,020.4,000.0,029.8,023.1,25.2,0000.0,0004.94,0003.00,0002.42
2024-03-14 00:58:00,SystemResetWarning,0821.8,4.99,000.00,021.2,020.4,000.0,029.8,023.0,25.2,0000.0,0004.61,0002.93,0002.37
2024-03-14 00:59:00,SystemResetWarning,0821.6,5.00,000.00,021.2,020.4,000.0,029.8,023.0,25.2,0000.0,0004.57,0002.93,0002.33
